📊 Raw Sensor Data
Showing records 52626 to 52650 of 85,298 total
| ID | Distance (ft) | Battery V | Battery A | Int Temp (°F) | Int Humid (%) | Ext Temp (°F) | Solar V | RSSI | SNR | Time Stamp |
|---|---|---|---|---|---|---|---|---|---|---|
| 32685 | 12.8 | 3.74 | -5 | 43 | 38 | 46 | 0.10 | -80 | 8 | 02/17/2025 11:00 PM |
| 32684 | 12.8 | 3.74 | -5 | 43 | 37 | 46 | 0.00 | -80 | 8 | 02/17/2025 10:45 PM |
| 32683 | 12.8 | 3.80 | -5 | 43 | 38 | 46 | 0.10 | -80 | 8 | 02/17/2025 10:30 PM |
| 32682 | 12.8 | 3.74 | -5 | 43 | 38 | 46 | 0.00 | -81 | 9 | 02/17/2025 10:15 PM |
| 32681 | 12.8 | 3.74 | -5 | 44 | 38 | 46 | 0.00 | -80 | 8 | 02/17/2025 10:00 PM |
| 32680 | 12.8 | 3.74 | -5 | 43 | 38 | 46 | 0.10 | -80 | 7 | 02/17/2025 09:45 PM |
| 32679 | 12.8 | 3.80 | -5 | 43 | 39 | 45 | 0.00 | -79 | 8 | 02/17/2025 09:30 PM |
| 32678 | 12.8 | 3.74 | -5 | 43 | 39 | 46 | 0.00 | -79 | 8 | 02/17/2025 09:15 PM |
| 32677 | 12.8 | 3.74 | -5 | 43 | 39 | 45 | 0.00 | -79 | 8 | 02/17/2025 09:00 PM |
| 32676 | 12.8 | 3.74 | -5 | 45 | 39 | 47 | 0.00 | -79 | 8 | 02/17/2025 08:45 PM |
| 32675 | 12.8 | 3.74 | -5 | 46 | 39 | 49 | 0.00 | -79 | 8 | 02/17/2025 08:30 PM |
| 32674 | 12.8 | 3.74 | -5 | 47 | 39 | 49 | 0.10 | -80 | 7 | 02/17/2025 08:15 PM |
| 32673 | 12.8 | 3.80 | -5 | 47 | 39 | 49 | 0.00 | -80 | 8 | 02/17/2025 08:00 PM |
| 32672 | 12.8 | 3.74 | -5 | 48 | 39 | 49 | 0.00 | -78 | 8 | 02/17/2025 07:45 PM |
| 32671 | 12.8 | 3.81 | -5 | 48 | 40 | 50 | 0.00 | -78 | 7 | 02/17/2025 07:30 PM |
| 32670 | 12.8 | 3.74 | -5 | 49 | 40 | 51 | 0.00 | -78 | 6 | 02/17/2025 07:15 PM |
| 32669 | 12.8 | 3.81 | -5 | 50 | 40 | 51 | 0.10 | -78 | 7 | 02/17/2025 07:00 PM |
| 32668 | 12.8 | 3.74 | -5 | 51 | 40 | 52 | 0.00 | -78 | 8 | 02/17/2025 06:45 PM |
| 32667 | 12.8 | 3.74 | -5 | 52 | 41 | 53 | 0.10 | -77 | 8 | 02/17/2025 06:30 PM |
| 32666 | 12.8 | 3.74 | -5 | 53 | 41 | 54 | 0.00 | -77 | 8 | 02/17/2025 06:15 PM |
| 32665 | 12.8 | 3.81 | -5 | 55 | 41 | 55 | 1.70 | -77 | 8 | 02/17/2025 06:00 PM |
| 32664 | 12.8 | 3.76 | 0 | 57 | 41 | 56 | 4.50 | -77 | 8 | 02/17/2025 05:45 PM |
| 32663 | 12.8 | 3.83 | 5 | 59 | 40 | 57 | 4.50 | -77 | 7 | 02/17/2025 05:30 PM |
| 32662 | 12.8 | 3.86 | 0 | 59 | 41 | 57 | 4.50 | -77 | 7 | 02/17/2025 05:15 PM |
| 32661 | 12.8 | 3.73 | 0 | 62 | 40 | 58 | 5.10 | -77 | 8 | 02/17/2025 05:00 PM |